[[{"header":{"parameterUnit":"m.s-1","parameterCategory":1,"la1":30.2991,"la2":30.254,"lo1":-89.0895,"lo2":-89.0444,"dy":0.0017,"dx":0.0017,"nx":28,"ny":28,"refTime":"2023-10-13T09:00:00:Z","depth":0,"parameterNumber":2,"parameterNumberName":"U-component_of_WINDS"},"data":[0,0,0,0,0,0,0,0,0,0,0,0,0,0,0,0,0,0,0,0,0,0,0,0,0,0,0,0,0,0,0,0,0,0,0,0,0,0,0,0,0,0,0,0,0,0,0,0,0,0,0,0,0,0,0,0,0,0,-1.7619,-1.7619,0,-1.758,-1.7579,-1.7579,-1.7496,-1.7495,-1.7493,-1.7492,-1.7452,-1.7453,-1.7453,0,0,0,0,0,0,0,0,0,0,0,0,0,-1.7623,-1.7624,-1.7619,-1.7619,-1.7618,-1.758,-1.7579,-1.7579,-1.7497,-1.7495,-1.7493,-1.7491,-1.7452,-1.7453,-1.7454,0,0,0,0,0,0,0,0,0,0,0,0,0,-1.7607,-1.7624,-1.7619,-1.7573,-1.7568,-1.758,-1.7579,-1.7579,-1.7497,-1.7495,-1.7492,-1.749,-1.7452,-1.7453,-1.7454,-1.7508,0,0,-1.7456,-1.7456,0,0,0,0,0,0,0,0,-1.7608,-1.7607,-1.758,-1.7576,-1.7571,-1.754,-1.7566,-1.7555,-1.7498,-1.7524,-1.7491,-1.7489,-1.7484,-1.7482,-1.748,-1.7506,-1.7505,-1.7456,-1.7456,-1.7457,-1.7457,0,0,0,0,0,0,0,-1.7609,-1.7608,-1.7603,-1.758,-1.7574,-1.7554,-1.7548,-1.7564,-1.7518,-1.7522,-1.7515,-1.7512,-1.7481,-1.7479,-1.7478,-1.7504,-1.7456,-1.7457,-1.7457,-1.7457,-1.7572,-1.7575,0,0,0,0,0,0,-1.7617,-1.7609,-1.7605,-1.7602,-1.7583,-1.7556,-1.755,-1.7553,-1.7518,-1.751,-1.7514,-1.7508,-1.7479,-1.7478,-1.7477,-1.7538,-1.7457,-1.7458,-1.7458,-1.757,-1.7573,-1.7576,0,0,0,0,0,0,-1.7617,-1.7617,-1.7606,-1.7604,-1.7601,-1.7558,-1.7562,-1.7553,-1.7552,-1.7512,-1.7504,-1.7521,-1.7477,-1.7476,-1.7501,-1.7535,-1.7458,-1.7459,-1.7567,-1.7571,-1.7574,-1.7661,0,0,0,0,0,0,-1.7618,-1.7618,-1.7638,-1.7605,-1.7602,-1.7631,-1.7564,-1.7554,-1.7553,-1.7545,-1.7517,-1.751,-1.7475,-1.75,-1.7501,-1.7535,-1.7459,-1.7563,-1.7568,-1.7573,-1.7655,-1.7668,-1.7679,0,0,0,0,0,-1.7618,-1.7665,-1.764,-1.764,-1.7626,-1.7633,-1.7631,-1.7591,-1.7556,-1.7576,-1.7551,-1.751,-1.7531,-1.7503,-1.7504,-1.7539,-1.7561,-1.7567,-1.7573,-1.765,-1.7665,-1.7678,0,0,0,0,0,0,-1.7704,-1.766,-1.7631,-1.7669,-1.7655,-1.762,-1.7644,-1.7608,-1.7605,-1.7598,-1.7547,-1.7542,-1.7573,-1.7558,-1.7528,-1.7589,-1.754,-1.7546,-1.7598,-1.7612,-1.7624,-1.7627,-1.746,0,0,0,0,0,-1.7727,-1.7736,-1.7697,-1.7734,-1.7729,-1.7688,-1.7689,-1.7659,-1.7643,-1.7637,-1.7613,-1.76,-1.7603,-1.7607,-1.7608,-1.7652,-1.7645,-1.7676,-1.7688,-1.7698,-1.7704,-1.7726,-1.7739,-1.7595,-1.7595,-1.7595,0,0,-1.7775,-1.7752,-1.7761,-1.7751,-1.7737,-1.7748,-1.7683,-1.7698,-1.7705,-1.7639,-1.7662,-1.7644,-1.7625,-1.766,-1.7674,-1.7649,-1.7742,-1.7705,-1.7713,-1.7714,-1.7733,-1.7747,-1.7759,-1.7599,-1.7598,-1.7597,0,0,-1.7869,-1.7852,-1.7881,-1.7868,-1.7847,-1.7819,-1.7826,-1.7795,-1.7781,-1.7802,-1.7752,-1.776,-1.7767,-1.7756,-1.7751,-1.7839,-1.7802,-1.7841,-1.7902,-1.7924,-1.7935,-1.7945,-1.7976,-1.7988,-1.7847,-1.7847,-1.7847,0,-1.7931,-1.7945,-1.79,-1.7917,-1.7914,-1.7854,-1.7882,-1.7872,-1.7853,-1.7852,-1.7823,-1.783,-1.7813,-1.7844,-1.7866,-1.7864,-1.787,-1.7844,-1.7937,-1.7947,-1.7955,-1.7984,-1.7996,-1.7852,-1.7851,-1.7851,-1.785,0,-1.8024,-1.8034,-1.806,-1.8042,-1.8041,-1.8064,-1.8022,-1.8027,-1.7996,-1.7971,-1.7993,-1.7971,-1.7966,-1.7971,-1.7942,-1.7998,-1.7982,-1.7946,-1.7895,-1.7975,-1.8001,-1.8012,-1.7859,-1.7857,-1.7856,-1.7855,0,0,-1.8171,-1.8127,-1.8137,-1.8128,-1.8101,-1.8108,-1.8128,-1.8122,-1.8127,-1.8116,-1.8131,-1.8138,-1.8104,-1.8098,-1.8067,-1.8086,-1.8157,-1.8047,-1.8046,-1.8068,-1.8217,-1.8245,-1.8259,-1.8131,-1.8133,-1.8135,-1.8219,0,-1.8259,-1.829,-1.8249,-1.8289,-1.8298,-1.8241,-1.8258,-1.8243,-1.822,-1.8224,-1.8198,-1.8204,-1.8158,-1.8154,-1.8171,-1.8145,-1.8186,-1.8138,-1.8145,-1.8146,-1.8153,-1.8273,-1.8303,-1.8383,-1.8229,-1.8231,-1.8232,0,-1.8366,-1.8358,-1.84,-1.8368,-1.8371,-1.8387,-1.8378,-1.8383,-1.8364,-1.8346,-1.8339,-1.8301,-1.8318,-1.8268,-1.8291,-1.8259,-1.8259,-1.8247,-1.8249,-1.8249,-1.8195,-1.8276,-1.8408,-1.842,-1.8248,-1.8247,-1.8245,0,-1.847,-1.847,-1.8495,-1.8489,-1.8453,-1.8466,-1.8451,-1.843,-1.8429,-1.8421,-1.842,-1.8415,-1.8412,-1.8409,-1.837,-1.8337,-1.8397,-1.8344,-1.8383,-1.8384,-1.8399,-1.8399,-1.8533,-1.8398,-1.8398,-1.8398,-1.8398,0,-1.8572,-1.86,-1.8541,-1.8556,-1.8585,-1.8537,-1.8567,-1.8547,-1.8528,-1.8539,-1.8488,-1.8499,-1.8447,-1.8452,-1.8421,-1.8445,-1.8444,-1.8429,-1.8421,-1.8434,-1.8436,-1.8435,-1.8428,-1.8401,-1.8401,-1.84,-1.8399,0,-1.8694,-1.8656,-1.8678,-1.8642,-1.8633,-1.8657,-1.8625,-1.8638,-1.8611,-1.8624,-1.8625,-1.8583,-1.8586,-1.8546,-1.8542,-1.8521,-1.8559,-1.854,-1.8565,-1.856,-1.8601,-1.8598,-1.8739,-1.8755,-1.861,-1.8612,-1.8613,0,-1.8762,-1.8782,-1.8747,-1.875,-1.8738,-1.8744,-1.8742,-1.8695,-1.8696,-1.8675,-1.869,-1.8689,-1.8686,-1.8693,-1.8662,-1.8659,-1.864,-1.869,-1.8639,-1.8652,-1.8641,-1.8641,-1.8642,-1.8701,-1.8703,-1.8704,-1.8705,0,-1.8888,-1.8867,-1.8867,-1.886,-1.8859,-1.8851,-1.884,-1.8846,-1.8794,-1.8798,-1.88,-1.8797,-1.8792,-1.8792,-1.8781,-1.8766,-1.8728,-1.8721,-1.873,-1.8744,-1.8758,-1.8751,-1.8595,-1.8718,-1.8717,-1.8716,-1.8715,-1.8715,-1.8985,-1.8999,-1.8977,-1.8978,-1.8964,-1.8955,-1.8965,-1.8939,-1.8939,-1.8931,-1.8903,-1.8911,-1.889,-1.8873,-1.8861,-1.8866,-1.8841,-1.8854,-1.8857,-1.8861,-1.8869,-1.8756,-1.8864,-1.8863,-1.8863,-1.8862,-1.8862,0,-1.9108,-1.909,-1.9091,-1.9077,-1.9078,-1.904,-1.9025,-1.9029,-1.9036,-1.902,-1.9017,-1.9019,-1.9018,-1.8987,-1.8981,-1.8991,-1.8973,-1.8992,-1.8991,-1.8988,-1.8891,-1.8884,-1.9006,-1.9006,-1.9006,-1.9006,-1.9006,-1.9006,-1.9172,-1.9194,-1.9171,-1.9187,-1.9168,-1.9175,-1.917,-1.9161,-1.9147,-1.9152,-1.9151,-1.913,-1.9108,-1.91,-1.9097,-1.9088,-1.9089,-1.9113,-1.9098,-1.9009,-1.8995,-1.8982,-1.8975,-1.9114,-1.9114,-1.9194,-1.9195,-1.9196]},{"header":{"parameterUnit":"m.s-1","parameterCategory":1,"la1":30.2991,"la2":30.254,"lo1":-89.0895,"lo2":-89.0444,"dy":0.0017,"dx":0.0017,"nx":28,"ny":28,"refTime":"2023-10-13T09:00:00:Z","depth":0,"parameterNumber":3,"parameterNumberName":"V-component_of_WINDS"},"data":[0,0,0,0,0,0,0,0,0,0,0,0,0,0,0,0,0,0,0,0,0,0,0,0,0,0,0,0,0,0,0,0,0,0,0,0,0,0,0,0,0,0,0,0,0,0,0,0,0,0,0,0,0,0,0,0,0,0,-4.2888,-4.2889,0,-4.299,-4.2991,-4.2992,-4.2961,-4.2959,-4.2956,-4.2954,-4.3056,-4.3061,-4.3065,0,0,0,0,0,0,0,0,0,0,0,0,0,-4.2662,-4.2666,-4.2888,-4.2889,-4.289,-4.299,-4.2991,-4.2993,-4.2961,-4.2958,-4.2956,-4.2953,-4.3055,-4.306,-4.3066,0,0,0,0,0,0,0,0,0,0,0,0,0,-4.2761,-4.2667,-4.2888,-4.2887,-4.2888,-4.299,-4.2991,-4.2993,-4.2962,-4.2958,-4.2955,-4.2952,-4.3053,-4.306,-4.3067,-4.3175,0,0,-4.3088,-4.3091,0,0,0,0,0,0,0,0,-4.2756,-4.277,-4.2885,-4.2887,-4.2888,-4.2959,-4.2949,-4.3054,-4.2962,-4.2933,-4.2954,-4.2951,-4.3026,-4.3035,-4.3062,-4.318,-4.3184,-4.3089,-4.3093,-4.3096,-4.3098,0,0,0,0,0,0,0,-4.2749,-4.2765,-4.2928,-4.2887,-4.2889,-4.288,-4.2891,-4.2969,-4.2997,-4.2936,-4.2934,-4.2946,-4.3026,-4.3055,-4.3064,-4.3186,-4.3089,-4.3095,-4.3099,-4.3102,-4.3397,-4.34,0,0,0,0,0,0,-4.2742,-4.276,-4.2925,-4.2931,-4.2813,-4.2887,-4.2899,-4.294,-4.2996,-4.3001,-4.2949,-4.2945,-4.3044,-4.3056,-4.3067,-4.3198,-4.3096,-4.3103,-4.3107,-4.3393,-4.3398,-4.3401,0,0,0,0,0,0,-4.2737,-4.2757,-4.2921,-4.2845,-4.2865,-4.2894,-4.2941,-4.2943,-4.2972,-4.3006,-4.301,-4.2973,-4.3042,-4.3057,-4.3148,-4.3201,-4.3106,-4.3112,-4.3389,-4.3395,-4.3399,-4.3459,0,0,0,0,0,0,-4.273,-4.2755,-4.2797,-4.2846,-4.2869,-4.3002,-4.2944,-4.2948,-4.2985,-4.298,-4.303,-4.3035,-4.3041,-4.3138,-4.3156,-4.3209,-4.3118,-4.3384,-4.3391,-4.3398,-4.3452,-4.3466,-4.3477,0,0,0,0,0,-4.2722,-4.281,-4.28,-4.282,-4.2923,-4.3005,-4.3018,-4.3024,-4.2989,-4.3031,-4.3053,-4.3033,-4.3192,-4.3148,-4.3167,-4.3223,-4.3381,-4.3389,-4.3397,-4.3447,-4.3463,-4.3477,0,0,0,0,0,0,-4.2765,-4.2816,-4.2806,-4.2911,-4.2954,-4.2999,-4.3053,-4.3041,-4.3093,-4.3087,-4.3091,-4.3102,-4.3196,-4.3218,-4.3168,-4.333,-4.3281,-4.3294,-4.3312,-4.3328,-4.334,-4.3333,-4.3124,0,0,0,0,0,-4.2787,-4.285,-4.2891,-4.298,-4.3002,-4.3024,-4.3059,-4.306,-4.3104,-4.3122,-4.315,-4.3193,-4.3252,-4.3291,-4.3348,-4.3455,-4.3465,-4.3503,-4.3515,-4.3525,-4.3536,-4.3594,-4.3611,-4.3428,-4.3428,-4.3428,0,0,-4.2833,-4.2868,-4.2908,-4.2989,-4.3023,-4.3087,-4.3039,-4.3109,-4.3156,-4.3132,-4.322,-4.3243,-4.329,-4.339,-4.3435,-4.3412,-4.3589,-4.3536,-4.3543,-4.3549,-4.3604,-4.3621,-4.3637,-4.3433,-4.3432,-4.3431,0,0,-4.2949,-4.2982,-4.306,-4.3095,-4.3146,-4.3159,-4.3178,-4.3225,-4.3239,-4.3328,-4.3311,-4.3367,-4.3469,-4.3504,-4.3535,-4.3663,-4.3647,-4.3681,-4.3746,-4.3802,-4.3816,-4.3829,-4.3875,-4.3891,-4.3692,-4.3692,-4.3692,0,-4.2999,-4.3096,-4.3101,-4.3173,-4.3209,-4.3191,-4.3269,-4.3302,-4.3369,-4.3393,-4.3366,-4.3494,-4.3525,-4.3632,-4.3664,-4.3689,-4.371,-4.3676,-4.3814,-4.3827,-4.3839,-4.3883,-4.39,-4.3696,-4.3695,-4.3695,-4.3695,0,-4.3155,-4.3222,-4.3279,-4.3345,-4.3387,-4.3462,-4.3477,-4.3519,-4.3516,-4.3533,-4.3622,-4.3659,-4.3722,-4.3748,-4.3745,-4.3855,-4.3838,-4.3813,-4.3764,-4.386,-4.3901,-4.3918,-4.3701,-4.37,-4.3699,-4.3698,0,0,-4.3301,-4.3369,-4.3389,-4.3419,-4.3474,-4.3526,-4.3599,-4.3662,-4.3697,-4.3743,-4.3805,-4.3891,-4.3868,-4.3903,-4.3904,-4.3954,-4.4053,-4.3922,-4.3923,-4.3945,-4.4175,-4.4195,-4.4214,-4.4042,-4.4046,-4.4048,-4.4171,0,-4.3421,-4.3552,-4.3558,-4.3676,-4.3738,-4.3721,-4.3785,-4.3825,-4.3842,-4.3896,-4.3914,-4.3976,-4.394,-4.3961,-4.401,-4.4031,-4.4099,-4.4022,-4.4098,-4.4101,-4.4087,-4.4235,-4.4256,-4.4371,-4.4187,-4.419,-4.4192,0,-4.358,-4.3632,-4.3756,-4.3802,-4.3828,-4.3886,-4.3943,-4.3996,-4.404,-4.4049,-4.4088,-4.4082,-4.4156,-4.4104,-4.4205,-4.4152,-4.4184,-4.4199,-4.4203,-4.4211,-4.4153,-4.4247,-4.4407,-4.4425,-4.4217,-4.4215,-4.4213,0,-4.3674,-4.3775,-4.3862,-4.3888,-4.3944,-4.3984,-4.4009,-4.405,-4.4088,-4.4138,-4.4162,-4.4219,-4.4251,-4.4295,-4.4305,-4.4266,-4.4406,-4.4355,-4.4415,-4.4415,-4.4445,-4.4443,-4.4613,-4.4465,-4.4465,-4.4465,-4.4464,0,-4.3808,-4.3885,-4.3906,-4.3959,-4.4044,-4.4051,-4.4134,-4.4156,-4.4193,-4.4249,-4.4238,-4.4291,-4.43,-4.4355,-4.4363,-4.4445,-4.4459,-4.4468,-4.4469,-4.4469,-4.4468,-4.449,-4.4483,-4.4469,-4.4468,-4.4467,-4.4467,0,-4.3928,-4.3945,-4.4039,-4.4084,-4.4097,-4.4158,-4.4195,-4.4246,-4.4262,-4.4334,-4.4351,-4.4375,-4.4439,-4.4453,-4.4529,-4.4534,-4.4632,-4.4625,-4.4617,-4.4617,-4.4676,-4.467,-4.4866,-4.4892,-4.4727,-4.4729,-4.473,0,-4.4012,-4.4071,-4.4122,-4.416,-4.4187,-4.4248,-4.4286,-4.4294,-4.4334,-4.4389,-4.4433,-4.4496,-4.4547,-4.465,-4.4674,-4.4732,-4.4726,-4.4791,-4.4735,-4.4733,-4.4727,-4.4724,-4.4729,-4.4801,-4.4803,-4.4805,-4.4806,0,-4.4161,-4.4166,-4.4222,-4.4281,-4.4327,-4.4374,-4.4418,-4.4449,-4.4463,-4.4508,-4.4574,-4.4614,-4.4692,-4.4754,-4.4812,-4.4836,-4.4823,-4.4823,-4.484,-4.4841,-4.4834,-4.4839,-4.4647,-4.4819,-4.4817,-4.4816,-4.4816,-4.4815,-4.4265,-4.4317,-4.4361,-4.4423,-4.4458,-4.4499,-4.4549,-4.4571,-4.4627,-4.4691,-4.4692,-4.4764,-4.4806,-4.4883,-4.491,-4.4966,-4.4946,-4.497,-4.4976,-4.4983,-4.4988,-4.4825,-4.4977,-4.4976,-4.4976,-4.4976,-4.4975,0,-4.4413,-4.4441,-4.4498,-4.4561,-4.461,-4.4594,-4.4642,-4.4684,-4.4748,-4.4788,-4.4839,-4.4914,-4.4975,-4.5003,-4.5063,-4.5102,-4.5097,-4.5117,-4.5114,-4.512,-4.5003,-4.4982,-4.512,-4.512,-4.512,-4.512,-4.512,-4.512,-4.4496,-4.4582,-4.4592,-4.4694,-4.4721,-4.4792,-4.4821,-4.4859,-4.4892,-4.4977,-4.5027,-4.5046,-4.5081,-4.5143,-4.5198,-4.5204,-4.5227,-4.5249,-4.5253,-4.5143,-4.5128,-4.5114,-4.5095,-4.5254,-4.5254,-4.5366,-4.5367,-4.5368]}]]